Regional Weather Roundup
Issued by NWS Newport/Morehead, NC

Current Version | Previous Version | Graphics & Text | Print | Product List | Glossary Off
Versions: 1 2 3 4 5 6 7 8 9 10 11 12 13 14 15 16 17 18 19 20 21 22 23 24 25 26 27 28 29 30 31 32 33 34 35 36 37 38 39 40 41 42 43 44 45 46 47 48 49 50

000
ASUS42 KMHX 290825
RWRMHX
WEATHER ROUNDUP FOR EASTERN NORTH CAROLINA
NATIONAL WEATHER SERVICE NEWPORT/MOREHEAD CITY NC
400 AM EDT MON AUG 29 2016

NOTE: "FAIR" INDICATES FEW OR NO CLOUDS BELOW 12,000 FEET
WITH NO SIGNIFICANT WEATHER AND/OR OBSTRUCTIONS TO VISIBILITY

NCZ015>017-031-032-045>047-102-103-290900-
NORTH COAST

CITY           SKY/WX    TMP DP  RH WIND       PRES   REMARKS
EDENTON        MOCLDY   N/A N/A N/A N5        30.10F
ELIZABETH CITY CLOUDY    76  73  91 N9        30.09F
KITTY HAWK     CLOUDY    78  78 100 CALM      30.07F
MANTEO         CLOUDY    78  78  99 NE7       30.08F

$$

NCZ045>047-081-094-103-104-290900-
CENTRAL COAST

CITY           SKY/WX    TMP DP  RH WIND       PRES   REMARKS
FRISCO         CLOUDY    78  73  84 NE5       30.07S

$$

NCZ095-097-098-100-101-290900-
SOUTHERN COAST

CITY           SKY/WX    TMP DP  RH WIND       PRES   REMARKS
BEAUFORT       PTCLDY    78  77  96 N7        30.06F
CEDAR ISLAND   NOT AVBL
JACKSONVILLE   CLOUDY    76  74  93 N7        30.07F
PINEY ISLAND   NOT AVBL
WILMINGTON     CLOUDY    76  75  97 NE10      30.07F


$$

NCZ011>013-027>030-043-044-078>080-089-090>093-098-290900-
COASTAL PLAIN

CITY           SKY/WX    TMP DP  RH WIND       PRES   REMARKS
AHOSKIE        CLOUDY    70  69  96 CALM      30.11F
CLINTON        PTCLDY    75  74  98 N5        30.09F
ELIZABETHTOWN  CLOUDY    74  74 100 CALM      30.09F
GOLDSBORO      MOCLDY    73  73 100 VRB6      30.08F
GREENVILLE     MOCLDY    73  73 100 N5        30.11F
HAVELOCK       CLOUDY    78  75  90 N7        30.08F
KENANSVILLE    PTCLDY    73  73 100 CALM      30.09F FOG
KINSTON        CLOUDY    74  73  96 N6        30.10F
NEW BERN       CLOUDY    76  74  93 N8        30.09F
RICHLANDS      CLOUDY    74  74 100 N6        30.08F
ROCKY MOUNT    PTCLDY    72  71  97 N3        30.12F
WASHINGTON     LGT RAIN  73  73  98 NE5       30.09F
WHITEVILLE     CLOUDY    75  73  95 N5        30.07F FOG

$$

AMZ130-135-150-152-154-156-158-170-250-252-270-ANZ085-086-088-633-658-670-290900-
MARINE OBSERVATIONS

STATION/POSITION TIME  TEMP    WIND        PRES    WAVE   SWELL
                       AIR SEA DIR/SP/G            HT/PER HT/PER
                 (UTC) (F)     (DEG/KT/KT) (MB)    (FT/S) (FT/S)
CHESAPEAKE LIGHT NOT AVBL
64 E VA BEACH    0750   77 81   10/ 10/ 14 1018.8    3/ 8   3/ 8
DUCK             0700   79 78   30/  9/ 10 1018.5
2 E DUCK         0811      79                N/A     4/14   2/14
OREGON INLET     0700   80 81   10/  7/ 10 1018.6
13E OREGON INLT  0800      81                N/A     4/ 8   3/ 8
HATTERAS CG      0700   79 82   70/  4/  6 1018.0
DIAMOND BUOY     0750   83 84   80/ 12/ 14 1017.7    5/ 8   5/ 8
CAPE LOOKOUT     0800   79     360/  6/  7 1017.5
BEAUFORT LAB     0700   79 81  350/  6/  9 1017.7
30 SE NEW RVR IN 0808   82 84   30/ 12/ 17 1017.4
30 SE NEW RVR IN 0725      84                N/A     3/14   2/14
27 SE WRIGHTSVLE 0808   80 83  360/ 16/ 19 1017.8
5 SE WRIGHTSVLE  0808   80 83   30/  8/ 12 1018.9
225 S CAPE HAT   0750   82 84  350/  8/ 10 1015.1    7/13   7/13
41 SE CHARLESTON 0750   83 85   60/ 10/ 12 1016.1    3/ 7   3/ 7

$$




USA.gov is the U.S. government's official web portal to all federal, state and local government web resources and services.